Year,Month,Day,Hour,Minute,Value (Times are PST for temperature in C)
2009,06,27,00,00,11.40
2009,06,27,00,01,11.40
2009,06,27,00,02,11.40
2009,06,27,00,03,11.40
2009,06,27,00,04,11.40
2009,06,27,00,05,11.40
2009,06,27,00,06,11.40
2009,06,27,00,07,11.40
2009,06,27,00,08,11.40
2009,06,27,00,09,11.40
2009,06,27,00,10,11.40
2009,06,27,00,11,11.40
2009,06,27,00,12,11.40
2009,06,27,00,13,11.40
2009,06,27,00,14,11.40
2009,06,27,00,15,11.40
2009,06,27,00,16,11.40
2009,06,27,00,17,11.30
2009,06,27,00,18,11.30
2009,06,27,00,19,11.30
2009,06,27,00,20,11.30
2009,06,27,00,21,11.30
2009,06,27,00,22,11.30
2009,06,27,00,23,11.30
2009,06,27,00,24,11.20
2009,06,27,00,25,11.20
2009,06,27,00,26,11.20
2009,06,27,00,27,11.20
2009,06,27,00,28,11.20
2009,06,27,00,29,11.10
2009,06,27,00,30,11.10
2009,06,27,00,31,11.10
2009,06,27,00,32,11.10
2009,06,27,00,33,11.10
2009,06,27,00,34,11.10
2009,06,27,00,35,11.10
2009,06,27,00,36,11.10
2009,06,27,00,37,11.10
2009,06,27,00,38,11.10
2009,06,27,00,39,11.10
2009,06,27,00,40,11.10
2009,06,27,00,41,11.00
2009,06,27,00,42,10.90
2009,06,27,00,43,10.90
2009,06,27,00,44,10.90
2009,06,27,00,45,10.90
2009,06,27,00,46,10.90
2009,06,27,00,47,10.90
2009,06,27,00,48,10.90
2009,06,27,00,49,10.90
2009,06,27,00,50,10.90
2009,06,27,00,51,10.90
2009,06,27,00,52,10.90
2009,06,27,00,53,10.90
2009,06,27,00,54,10.90
2009,06,27,00,55,10.80
2009,06,27,00,56,10.80
2009,06,27,00,57,10.70
2009,06,27,00,58,10.60
2009,06,27,00,59,10.60
2009,06,27,01,00,10.60
2009,06,27,01,01,10.40
2009,06,27,01,02,10.40
2009,06,27,01,03,10.40
2009,06,27,01,04,10.40
2009,06,27,01,05,10.30
2009,06,27,01,06,10.20
2009,06,27,01,07,10.20
2009,06,27,01,08,10.20
2009,06,27,01,09,10.10
2009,06,27,01,10,10.10
2009,06,27,01,11,10.10
2009,06,27,01,12,10.10
2009,06,27,01,13,9.90
2009,06,27,01,14,9.90
2009,06,27,01,15,10.00
2009,06,27,01,16,10.10
2009,06,27,01,17,10.10
2009,06,27,01,18,10.10
2009,06,27,01,19,10.10
2009,06,27,01,20,10.10
2009,06,27,01,21,10.10
2009,06,27,01,22,10.10
2009,06,27,01,23,10.10
2009,06,27,01,24,10.10
2009,06,27,01,25,10.10
2009,06,27,01,26,10.10
2009,06,27,01,27,10.10
2009,06,27,01,28,10.10
2009,06,27,01,29,10.00
2009,06,27,01,30,9.90
2009,06,27,01,31,9.90
2009,06,27,01,32,9.80
2009,06,27,01,33,9.70
2009,06,27,01,34,9.70
2009,06,27,01,35,9.70
2009,06,27,01,36,9.70
2009,06,27,01,37,9.60
2009,06,27,01,38,9.60
2009,06,27,01,39,9.60
2009,06,27,01,40,9.50
2009,06,27,01,41,9.50
2009,06,27,01,42,9.50
2009,06,27,01,43,9.50
2009,06,27,01,44,9.40
2009,06,27,01,45,9.40
2009,06,27,01,46,9.40
2009,06,27,01,47,9.50
2009,06,27,01,48,9.50
2009,06,27,01,49,9.50
2009,06,27,01,50,9.50
2009,06,27,01,51,9.50
2009,06,27,01,52,9.50
2009,06,27,01,53,9.50
2009,06,27,01,54,9.50
2009,06,27,01,55,9.40
2009,06,27,01,56,9.40
2009,06,27,01,57,9.40
2009,06,27,01,58,9.30
2009,06,27,01,59,9.30
2009,06,27,02,00,9.20
2009,06,27,02,01,9.20
2009,06,27,02,02,9.10
2009,06,27,02,03,9.10
2009,06,27,02,04,9.00
2009,06,27,02,05,9.00
2009,06,27,02,06,8.90
2009,06,27,02,07,8.90
2009,06,27,02,08,8.90
2009,06,27,02,09,8.80
2009,06,27,02,10,8.80
2009,06,27,02,11,8.80
2009,06,27,02,12,8.80
2009,06,27,02,13,8.80
2009,06,27,02,14,8.80
2009,06,27,02,15,8.80
2009,06,27,02,16,8.80
2009,06,27,02,17,8.80
2009,06,27,02,18,8.80
2009,06,27,02,19,8.80
2009,06,27,02,20,8.80
2009,06,27,02,21,8.80
2009,06,27,02,22,8.80
2009,06,27,02,23,8.80
2009,06,27,02,24,8.80
2009,06,27,02,25,8.80
2009,06,27,02,26,8.80
2009,06,27,02,27,8.80
2009,06,27,02,28,8.80
2009,06,27,02,29,8.80
2009,06,27,02,30,8.90
2009,06,27,02,31,8.90
2009,06,27,02,32,8.90
2009,06,27,02,33,8.90
2009,06,27,02,34,9.00
2009,06,27,02,35,9.00
2009,06,27,02,36,9.00
2009,06,27,02,37,9.00
2009,06,27,02,38,9.00
2009,06,27,02,39,9.00
2009,06,27,02,40,9.00
2009,06,27,02,41,9.00
2009,06,27,02,42,9.00
2009,06,27,02,43,9.00
2009,06,27,02,44,8.90
2009,06,27,02,45,8.90
2009,06,27,02,46,8.90
2009,06,27,02,47,8.90
2009,06,27,02,48,8.90
2009,06,27,02,49,8.90
2009,06,27,02,50,8.80
2009,06,27,02,51,8.80
2009,06,27,02,52,8.80
2009,06,27,02,53,8.80
2009,06,27,02,54,8.70
2009,06,27,02,55,8.70
2009,06,27,02,56,8.70
2009,06,27,02,57,8.70
2009,06,27,02,58,8.60
2009,06,27,02,59,8.60
2009,06,27,03,00,8.60
2009,06,27,03,01,8.60
2009,06,27,03,02,8.50
2009,06,27,03,03,8.50
2009,06,27,03,04,8.50
2009,06,27,03,05,8.50
2009,06,27,03,06,8.50
2009,06,27,03,07,8.50
2009,06,27,03,08,8.40
2009,06,27,03,09,8.40
2009,06,27,03,10,8.30
2009,06,27,03,11,8.30
2009,06,27,03,12,8.30
2009,06,27,03,13,8.30
2009,06,27,03,14,8.30
2009,06,27,03,15,8.20
2009,06,27,03,16,8.20
2009,06,27,03,17,8.20
2009,06,27,03,18,8.20
2009,06,27,03,19,8.20
2009,06,27,03,20,8.20
2009,06,27,03,21,8.20
2009,06,27,03,22,8.20
2009,06,27,03,23,8.20
2009,06,27,03,24,8.20
2009,06,27,03,25,8.20
2009,06,27,03,26,8.20
2009,06,27,03,27,8.20
2009,06,27,03,28,8.20
2009,06,27,03,29,8.10
2009,06,27,03,30,8.10
2009,06,27,03,31,8.10
2009,06,27,03,32,8.10
2009,06,27,03,33,8.10
2009,06,27,03,34,8.10
2009,06,27,03,35,8.00
2009,06,27,03,36,8.00
2009,06,27,03,37,8.00
2009,06,27,03,38,8.00
2009,06,27,03,39,8.00
2009,06,27,03,40,8.00
2009,06,27,03,41,7.90
2009,06,27,03,42,7.90
2009,06,27,03,43,7.90
2009,06,27,03,44,7.80
2009,06,27,03,45,7.80
2009,06,27,03,46,7.80
2009,06,27,03,47,7.80
2009,06,27,03,48,7.80
2009,06,27,03,49,7.80
2009,06,27,03,50,7.70
2009,06,27,03,51,7.70
2009,06,27,03,52,7.70
2009,06,27,03,53,7.70
2009,06,27,03,54,7.70
2009,06,27,03,55,7.70
2009,06,27,03,56,7.70
2009,06,27,03,57,7.60
2009,06,27,03,58,7.60
2009,06,27,03,59,7.60
2009,06,27,04,00,7.60
2009,06,27,04,01,7.60
2009,06,27,04,02,7.60
2009,06,27,04,03,7.60
2009,06,27,04,04,7.50
2009,06,27,04,05,7.50
2009,06,27,04,06,7.50
2009,06,27,04,07,7.50
2009,06,27,04,08,7.40
2009,06,27,04,09,7.40
2009,06,27,04,10,7.40
2009,06,27,04,11,7.30
2009,06,27,04,12,7.30
2009,06,27,04,13,7.30
2009,06,27,04,14,7.30
2009,06,27,04,15,7.30
2009,06,27,04,16,7.30
2009,06,27,04,17,7.30
2009,06,27,04,18,7.30
2009,06,27,04,19,7.30
2009,06,27,04,20,7.30
2009,06,27,04,21,7.30
2009,06,27,04,22,7.30
2009,06,27,04,23,7.30
2009,06,27,04,24,7.20
2009,06,27,04,25,7.20
2009,06,27,04,26,7.20
2009,06,27,04,27,7.20
2009,06,27,04,28,7.20
2009,06,27,04,29,7.20
2009,06,27,04,30,7.20
2009,06,27,04,31,7.10
2009,06,27,04,32,7.10
2009,06,27,04,33,7.10
2009,06,27,04,34,7.10
2009,06,27,04,35,7.10
2009,06,27,04,36,7.10
2009,06,27,04,37,7.10
2009,06,27,04,38,7.10
2009,06,27,04,39,7.00
2009,06,27,04,40,7.00
2009,06,27,04,41,7.00
2009,06,27,04,42,7.00
2009,06,27,04,43,7.00
2009,06,27,04,44,7.00
2009,06,27,04,45,6.90
2009,06,27,04,46,6.90
2009,06,27,04,47,6.90
2009,06,27,04,48,6.90
2009,06,27,04,49,6.90
2009,06,27,04,50,6.90
2009,06,27,04,51,6.90
2009,06,27,04,52,6.90
2009,06,27,04,53,6.80
2009,06,27,04,54,6.80
2009,06,27,04,55,6.80
2009,06,27,04,56,6.80
2009,06,27,04,57,6.80
2009,06,27,04,58,6.80
2009,06,27,04,59,6.80
2009,06,27,05,00,6.80
2009,06,27,05,01,6.80
2009,06,27,05,02,6.80
2009,06,27,05,03,6.80
2009,06,27,05,04,6.80
2009,06,27,05,05,6.80
2009,06,27,05,06,6.80
2009,06,27,05,07,6.80
2009,06,27,05,08,6.80
2009,06,27,05,09,6.80
2009,06,27,05,10,6.80
2009,06,27,05,11,6.80
2009,06,27,05,12,6.70
2009,06,27,05,13,6.70
2009,06,27,05,14,6.70
2009,06,27,05,15,6.70
2009,06,27,05,16,6.70
2009,06,27,05,17,6.70
2009,06,27,05,18,6.70
2009,06,27,05,19,6.70
2009,06,27,05,20,6.70
2009,06,27,05,21,6.70
2009,06,27,05,22,6.70
2009,06,27,05,23,6.70
2009,06,27,05,24,6.70
2009,06,27,05,25,6.70
2009,06,27,05,26,6.70
2009,06,27,05,27,6.70
2009,06,27,05,28,6.70
2009,06,27,05,29,6.70
2009,06,27,05,30,6.70
2009,06,27,05,31,6.70
2009,06,27,05,32,6.70
2009,06,27,05,33,6.60
2009,06,27,05,34,6.60
2009,06,27,05,35,6.60
2009,06,27,05,36,6.60
2009,06,27,05,37,6.60
2009,06,27,05,38,6.60
2009,06,27,05,39,6.60
2009,06,27,05,40,6.60
2009,06,27,05,41,6.50
2009,06,27,05,42,6.40
2009,06,27,05,43,6.40
2009,06,27,05,44,6.40
2009,06,27,05,45,6.50
2009,06,27,05,46,6.60
2009,06,27,05,47,6.60
2009,06,27,05,48,6.60
2009,06,27,05,49,6.60
2009,06,27,05,50,6.60
2009,06,27,05,51,6.70
2009,06,27,05,52,6.70
2009,06,27,05,53,6.70
2009,06,27,05,54,6.70
2009,06,27,05,55,6.80
2009,06,27,05,56,6.80
2009,06,27,05,57,6.80
2009,06,27,05,58,6.80
2009,06,27,05,59,6.80
2009,06,27,06,00,6.80
2009,06,27,06,01,6.80
2009,06,27,06,02,6.80
2009,06,27,06,03,6.80
2009,06,27,06,04,6.80
2009,06,27,06,05,6.80
2009,06,27,06,06,6.80
2009,06,27,06,07,6.80
2009,06,27,06,08,6.90
2009,06,27,06,09,6.80
2009,06,27,06,10,6.80
2009,06,27,06,11,6.90
2009,06,27,06,12,6.90
2009,06,27,06,13,6.90
2009,06,27,06,14,6.90
2009,06,27,06,15,6.90
2009,06,27,06,16,6.90
2009,06,27,06,17,6.90
2009,06,27,06,18,6.90
2009,06,27,06,19,6.90
2009,06,27,06,20,6.90
2009,06,27,06,21,7.00
2009,06,27,06,22,7.00
2009,06,27,06,23,7.00
2009,06,27,06,24,7.10
2009,06,27,06,25,7.10
2009,06,27,06,26,7.10
2009,06,27,06,27,7.20
2009,06,27,06,28,7.20
2009,06,27,06,29,7.30
2009,06,27,06,30,7.30
2009,06,27,06,31,7.30
2009,06,27,06,32,7.30
2009,06,27,06,33,7.40
2009,06,27,06,34,7.40
2009,06,27,06,35,7.50
2009,06,27,06,36,7.50
2009,06,27,06,37,7.60
2009,06,27,06,38,7.60
2009,06,27,06,39,7.60
2009,06,27,06,40,7.70
2009,06,27,06,41,7.70
2009,06,27,06,42,7.80
2009,06,27,06,43,7.80
2009,06,27,06,44,7.90
2009,06,27,06,45,7.90
2009,06,27,06,46,8.00
2009,06,27,06,47,8.00
2009,06,27,06,48,8.10
2009,06,27,06,49,8.10
2009,06,27,06,50,8.20
2009,06,27,06,51,8.20
2009,06,27,06,52,8.30
2009,06,27,06,53,8.40
2009,06,27,06,54,8.40
2009,06,27,06,55,8.50
2009,06,27,06,56,8.60
2009,06,27,06,57,8.70
2009,06,27,06,58,8.70
2009,06,27,06,59,8.80
2009,06,27,07,00,8.80
2009,06,27,07,01,8.90
2009,06,27,07,02,9.00
2009,06,27,07,03,9.00
2009,06,27,07,04,9.10
2009,06,27,07,05,9.20
2009,06,27,07,06,9.20
2009,06,27,07,07,9.30
2009,06,27,07,08,9.30
2009,06,27,07,09,9.40
2009,06,27,07,10,9.50
2009,06,27,07,11,9.60
2009,06,27,07,12,9.60
2009,06,27,07,13,9.70
2009,06,27,07,14,9.70
2009,06,27,07,15,9.80
2009,06,27,07,16,9.80
2009,06,27,07,17,9.90
2009,06,27,07,18,9.90
2009,06,27,07,19,10.00
2009,06,27,07,20,10.10
2009,06,27,07,21,10.10
2009,06,27,07,22,10.20
2009,06,27,07,23,10.30
2009,06,27,07,24,10.30
2009,06,27,07,25,10.40
2009,06,27,07,26,10.40
2009,06,27,07,27,10.60
2009,06,27,07,28,10.80
2009,06,27,07,29,10.90
2009,06,27,07,30,11.10
2009,06,27,07,31,11.20
2009,06,27,07,32,11.40
2009,06,27,07,33,11.50
2009,06,27,07,34,11.60
2009,06,27,07,35,11.70
2009,06,27,07,36,11.80
2009,06,27,07,37,11.90
2009,06,27,07,38,12.00
2009,06,27,07,39,12.10
2009,06,27,07,40,12.10
2009,06,27,07,41,12.20
2009,06,27,07,42,12.30
2009,06,27,07,43,12.30
2009,06,27,07,44,12.30
2009,06,27,07,45,12.30
2009,06,27,07,46,12.30
2009,06,27,07,47,12.40
2009,06,27,07,48,12.40
2009,06,27,07,49,12.50
2009,06,27,07,50,12.50
2009,06,27,07,51,12.50
2009,06,27,07,52,12.60
2009,06,27,07,53,12.60
2009,06,27,07,54,12.70
2009,06,27,07,55,12.80
2009,06,27,07,56,12.80
2009,06,27,07,57,12.80
2009,06,27,07,58,12.80
2009,06,27,07,59,12.80
2009,06,27,08,00,12.80
2009,06,27,08,01,12.90
2009,06,27,08,02,12.90
2009,06,27,08,03,12.90
2009,06,27,08,04,12.90
2009,06,27,08,05,12.90
2009,06,27,08,06,13.00
2009,06,27,08,07,13.00
2009,06,27,08,08,13.10
2009,06,27,08,09,13.20
2009,06,27,08,10,13.20
2009,06,27,08,11,13.30
2009,06,27,08,12,13.30
2009,06,27,08,13,13.20
2009,06,27,08,14,13.30
2009,06,27,08,15,13.20
2009,06,27,08,16,13.20
2009,06,27,08,17,13.20
2009,06,27,08,18,13.20
2009,06,27,08,19,13.20
2009,06,27,08,20,13.20
2009,06,27,08,21,13.30
2009,06,27,08,22,13.30
2009,06,27,08,23,13.30
2009,06,27,08,24,13.40
2009,06,27,08,25,13.40
2009,06,27,08,26,13.40
2009,06,27,08,27,13.40
2009,06,27,08,28,13.40
2009,06,27,08,29,13.50
2009,06,27,08,30,13.50
2009,06,27,08,31,13.50
2009,06,27,08,32,13.50
2009,06,27,08,33,13.50
2009,06,27,08,34,13.60
2009,06,27,08,35,13.60
2009,06,27,08,36,13.60
2009,06,27,08,37,13.70
2009,06,27,08,38,13.70
2009,06,27,08,39,13.70
2009,06,27,08,40,13.80
2009,06,27,08,41,13.90
2009,06,27,08,42,13.90
2009,06,27,08,43,14.00
2009,06,27,08,44,14.00
2009,06,27,08,45,14.10
2009,06,27,08,46,14.10
2009,06,27,08,47,14.10
2009,06,27,08,48,14.10
2009,06,27,08,49,14.10
2009,06,27,08,50,14.10
2009,06,27,08,51,14.20
2009,06,27,08,52,14.20
2009,06,27,08,53,14.20
2009,06,27,08,54,14.20
2009,06,27,08,55,14.20
2009,06,27,08,56,14.30
2009,06,27,08,57,14.30
2009,06,27,08,58,14.40
2009,06,27,08,59,14.40
2009,06,27,09,00,14.40
2009,06,27,09,01,14.40
2009,06,27,09,02,14.40
2009,06,27,09,03,14.50
2009,06,27,09,04,14.50
2009,06,27,09,05,14.50
2009,06,27,09,06,14.50
2009,06,27,09,07,14.50
2009,06,27,09,08,14.60
2009,06,27,09,09,14.60
2009,06,27,09,10,14.60
2009,06,27,09,11,14.70
2009,06,27,09,12,14.70
2009,06,27,09,13,14.70
2009,06,27,09,14,14.70
2009,06,27,09,15,14.70
2009,06,27,09,16,14.80
2009,06,27,09,17,14.80
2009,06,27,09,18,14.90
2009,06,27,09,19,15.00
2009,06,27,09,20,15.00
2009,06,27,09,21,15.10
2009,06,27,09,22,15.10
2009,06,27,09,23,15.20
2009,06,27,09,24,15.20
2009,06,27,09,25,15.20
2009,06,27,09,26,15.20
2009,06,27,09,27,15.20
2009,06,27,09,28,15.10
2009,06,27,09,29,15.20
2009,06,27,09,30,15.20
2009,06,27,09,31,15.20
2009,06,27,09,32,15.30
2009,06,27,09,33,15.30
2009,06,27,09,34,15.30
2009,06,27,09,35,15.30
2009,06,27,09,36,15.30
2009,06,27,09,37,15.30
2009,06,27,09,38,15.30
2009,06,27,09,39,15.30
2009,06,27,09,40,15.30
2009,06,27,09,41,15.30
2009,06,27,09,42,15.20
2009,06,27,09,43,15.20
2009,06,27,09,44,15.20
2009,06,27,09,45,15.20
2009,06,27,09,46,15.20
2009,06,27,09,47,15.30
2009,06,27,09,48,15.40
2009,06,27,09,49,15.40
2009,06,27,09,50,15.50
2009,06,27,09,51,15.50
2009,06,27,09,52,15.60
2009,06,27,09,53,15.60
2009,06,27,09,54,15.60
2009,06,27,09,55,15.60
2009,06,27,09,56,15.50
2009,06,27,09,57,15.60
2009,06,27,09,58,15.60
2009,06,27,09,59,15.50
2009,06,27,10,00,15.40
2009,06,27,10,01,15.40
2009,06,27,10,02,15.40
2009,06,27,10,03,15.40
2009,06,27,10,04,15.40
2009,06,27,10,05,15.40
2009,06,27,10,06,15.40
2009,06,27,10,07,15.40
2009,06,27,10,08,15.40
2009,06,27,10,09,15.30
2009,06,27,10,10,15.30
2009,06,27,10,11,15.40
2009,06,27,10,12,15.40
2009,06,27,10,13,15.50
2009,06,27,10,14,15.50
2009,06,27,10,15,15.50
2009,06,27,10,16,15.60
2009,06,27,10,17,15.70
2009,06,27,10,18,15.80
2009,06,27,10,19,15.80
2009,06,27,10,20,15.80
2009,06,27,10,21,15.80
2009,06,27,10,22,15.90
2009,06,27,10,23,16.10
2009,06,27,10,24,16.10
2009,06,27,10,25,16.10
2009,06,27,10,26,16.20
2009,06,27,10,27,16.30
2009,06,27,10,28,16.30
2009,06,27,10,29,16.20
2009,06,27,10,30,16.20
2009,06,27,10,31,16.20
2009,06,27,10,32,16.10
2009,06,27,10,33,16.10
2009,06,27,10,34,16.20
2009,06,27,10,35,16.20
2009,06,27,10,36,16.30
2009,06,27,10,37,16.30
2009,06,27,10,38,16.40
2009,06,27,10,39,16.40
2009,06,27,10,40,16.50
2009,06,27,10,41,16.60
2009,06,27,10,42,16.70
2009,06,27,10,43,16.60
2009,06,27,10,44,16.50
2009,06,27,10,45,16.40
2009,06,27,10,46,16.40
2009,06,27,10,47,16.40
2009,06,27,10,48,16.40
2009,06,27,10,49,16.40
2009,06,27,10,50,16.40
2009,06,27,10,51,16.50
2009,06,27,10,52,16.60
2009,06,27,10,53,16.70
2009,06,27,10,54,16.70
2009,06,27,10,55,16.70
2009,06,27,10,56,16.70
2009,06,27,10,57,16.70
2009,06,27,10,58,16.70
2009,06,27,10,59,16.70
2009,06,27,11,00,16.70
2009,06,27,11,01,16.80
2009,06,27,11,02,16.80
2009,06,27,11,03,16.80
2009,06,27,11,04,16.80
2009,06,27,11,05,16.80
2009,06,27,11,06,16.70
2009,06,27,11,07,16.80
2009,06,27,11,08,16.80
2009,06,27,11,09,16.70
2009,06,27,11,10,16.70
2009,06,27,11,11,16.70
2009,06,27,11,12,16.70
2009,06,27,11,13,16.70
2009,06,27,11,14,16.70
2009,06,27,11,15,16.70
2009,06,27,11,16,16.60
2009,06,27,11,17,16.60
2009,06,27,11,18,16.40
2009,06,27,11,19,16.40
2009,06,27,11,20,16.40
2009,06,27,11,21,16.40
2009,06,27,11,22,16.40
2009,06,27,11,23,16.40
2009,06,27,11,24,16.40
2009,06,27,11,25,16.40
2009,06,27,11,26,16.50
2009,06,27,11,27,16.70
2009,06,27,11,28,16.80
2009,06,27,11,29,16.80
2009,06,27,11,30,16.80
2009,06,27,11,31,16.70
2009,06,27,11,32,16.70
2009,06,27,11,33,16.70
2009,06,27,11,34,16.60
2009,06,27,11,35,16.60
2009,06,27,11,36,16.50
2009,06,27,11,37,16.40
2009,06,27,11,38,16.40
2009,06,27,11,39,16.40
2009,06,27,11,40,16.40
2009,06,27,11,41,16.40
2009,06,27,11,42,16.50
2009,06,27,11,43,16.70
2009,06,27,11,44,16.80
2009,06,27,11,45,16.90
2009,06,27,11,46,16.90
2009,06,27,11,47,16.80
2009,06,27,11,48,16.80
2009,06,27,11,49,16.70
2009,06,27,11,50,16.80
2009,06,27,11,51,17.00
2009,06,27,11,52,17.10
2009,06,27,11,53,17.20
2009,06,27,11,54,17.00
2009,06,27,11,55,17.00
2009,06,27,11,56,16.90
2009,06,27,11,57,16.90
2009,06,27,11,58,16.90
2009,06,27,11,59,16.90
2009,06,27,12,00,16.90
2009,06,27,12,01,16.90
2009,06,27,12,02,16.90
2009,06,27,12,03,17.00
2009,06,27,12,04,17.10
2009,06,27,12,05,17.20
2009,06,27,12,06,17.30
2009,06,27,12,07,17.40
2009,06,27,12,08,17.50
2009,06,27,12,09,17.50
2009,06,27,12,10,17.60
2009,06,27,12,11,17.60
2009,06,27,12,12,17.60
2009,06,27,12,13,17.60
2009,06,27,12,14,17.60
2009,06,27,12,15,17.50
2009,06,27,12,16,17.50
2009,06,27,12,17,17.60
2009,06,27,12,18,17.60
2009,06,27,12,19,17.70
2009,06,27,12,20,17.70
2009,06,27,12,21,17.80
2009,06,27,12,22,17.90
2009,06,27,12,23,17.90
2009,06,27,12,24,18.00
2009,06,27,12,25,18.10
2009,06,27,12,26,18.10
2009,06,27,12,27,18.20
2009,06,27,12,28,18.20
2009,06,27,12,29,18.30
2009,06,27,12,30,18.40
2009,06,27,12,31,18.40
2009,06,27,12,32,18.50
2009,06,27,12,33,18.50
2009,06,27,12,34,18.70
2009,06,27,12,35,18.70
2009,06,27,12,36,18.70
2009,06,27,12,37,18.60
2009,06,27,12,38,18.70
2009,06,27,12,39,18.70
2009,06,27,12,40,18.60
2009,06,27,12,41,18.50
2009,06,27,12,42,18.40
2009,06,27,12,43,18.40
2009,06,27,12,44,18.40
2009,06,27,12,45,18.40
2009,06,27,12,46,18.30
2009,06,27,12,47,18.30
2009,06,27,12,48,18.40
2009,06,27,12,49,18.40
2009,06,27,12,50,18.50
2009,06,27,12,51,18.50
2009,06,27,12,52,18.50
2009,06,27,12,53,18.40
2009,06,27,12,54,18.40
2009,06,27,12,55,18.20
2009,06,27,12,56,18.20
2009,06,27,12,57,18.20
2009,06,27,12,58,18.20
2009,06,27,12,59,18.20
2009,06,27,13,00,18.20
2009,06,27,13,01,18.20
2009,06,27,13,02,18.20
2009,06,27,13,03,18.20
2009,06,27,13,04,18.20
2009,06,27,13,05,18.20
2009,06,27,13,06,18.20
2009,06,27,13,07,18.20
2009,06,27,13,08,18.20
2009,06,27,13,09,18.20
2009,06,27,13,10,18.20
2009,06,27,13,11,18.40
2009,06,27,13,12,18.50
2009,06,27,13,13,18.60
2009,06,27,13,14,18.70
2009,06,27,13,15,18.60
2009,06,27,13,16,18.50
2009,06,27,13,17,18.40
2009,06,27,13,18,18.40
2009,06,27,13,19,18.50
2009,06,27,13,20,18.60
2009,06,27,13,21,18.60
2009,06,27,13,22,18.50
2009,06,27,13,23,18.50
2009,06,27,13,24,18.40
2009,06,27,13,25,18.30
2009,06,27,13,26,18.30
2009,06,27,13,27,18.30
2009,06,27,13,28,18.20
2009,06,27,13,29,18.30
2009,06,27,13,30,18.40
2009,06,27,13,31,18.40
2009,06,27,13,32,18.40
2009,06,27,13,33,18.30
2009,06,27,13,34,18.30
2009,06,27,13,35,18.30
2009,06,27,13,36,18.20
2009,06,27,13,37,18.30
2009,06,27,13,38,18.30
2009,06,27,13,39,18.30
2009,06,27,13,40,18.30
2009,06,27,13,41,18.30
2009,06,27,13,42,18.30
2009,06,27,13,43,18.30
2009,06,27,13,44,18.20
2009,06,27,13,45,18.30
2009,06,27,13,46,18.40
2009,06,27,13,47,18.40
2009,06,27,13,48,18.50
2009,06,27,13,49,18.50
2009,06,27,13,50,18.60
2009,06,27,13,51,18.70
2009,06,27,13,52,18.70
2009,06,27,13,53,18.60
2009,06,27,13,54,18.60
2009,06,27,13,55,18.70
2009,06,27,13,56,18.70
2009,06,27,13,57,18.80
2009,06,27,13,58,18.90
2009,06,27,13,59,19.00
2009,06,27,14,00,19.10
2009,06,27,14,01,19.10
2009,06,27,14,02,19.10
2009,06,27,14,03,19.10
2009,06,27,14,04,19.10
2009,06,27,14,05,19.10
2009,06,27,14,06,19.10
2009,06,27,14,07,19.00
2009,06,27,14,08,18.90
2009,06,27,14,09,18.90
2009,06,27,14,10,18.90
2009,06,27,14,11,18.90
2009,06,27,14,12,18.90
2009,06,27,14,13,18.90
2009,06,27,14,14,18.90
2009,06,27,14,15,18.90
2009,06,27,14,16,19.10
2009,06,27,14,17,19.10
2009,06,27,14,18,19.10
2009,06,27,14,19,19.10
2009,06,27,14,20,19.30
2009,06,27,14,21,19.40
2009,06,27,14,22,19.60
2009,06,27,14,23,19.80
2009,06,27,14,24,19.90
2009,06,27,14,25,20.00
2009,06,27,14,26,20.20
2009,06,27,14,27,20.50
2009,06,27,14,28,20.80
2009,06,27,14,29,21.00
2009,06,27,14,30,21.10
2009,06,27,14,31,21.20
2009,06,27,14,32,21.10
2009,06,27,14,33,21.00
2009,06,27,14,34,21.00
2009,06,27,14,35,21.10
2009,06,27,14,36,21.10
2009,06,27,14,37,21.20
2009,06,27,14,38,21.30
2009,06,27,14,39,21.30
2009,06,27,14,40,21.30
2009,06,27,14,41,21.30
2009,06,27,14,42,21.30
2009,06,27,14,43,21.30
2009,06,27,14,44,21.40
2009,06,27,14,45,21.50
2009,06,27,14,46,21.50
2009,06,27,14,47,21.40
2009,06,27,14,48,21.30
2009,06,27,14,49,21.30
2009,06,27,14,50,21.20
2009,06,27,14,51,21.00
2009,06,27,14,52,21.00
2009,06,27,14,53,21.00
2009,06,27,14,54,21.00
2009,06,27,14,55,20.90
2009,06,27,14,56,20.80
2009,06,27,14,57,20.70
2009,06,27,14,58,20.60
2009,06,27,14,59,20.60
2009,06,27,15,00,20.50
2009,06,27,15,01,20.50
2009,06,27,15,02,20.60
2009,06,27,15,03,20.50
2009,06,27,15,04,20.50
2009,06,27,15,05,20.50
2009,06,27,15,06,20.40
2009,06,27,15,07,20.30
2009,06,27,15,08,20.20
2009,06,27,15,09,20.20
2009,06,27,15,10,20.10
2009,06,27,15,11,20.10
2009,06,27,15,12,20.20
2009,06,27,15,13,20.20
2009,06,27,15,14,20.00
2009,06,27,15,15,19.90
2009,06,27,15,16,19.90
2009,06,27,15,17,19.80
2009,06,27,15,18,19.80
2009,06,27,15,19,19.90
2009,06,27,15,20,19.90
2009,06,27,15,21,19.90
2009,06,27,15,22,19.90
2009,06,27,15,23,19.90
2009,06,27,15,24,19.90
2009,06,27,15,25,19.90
2009,06,27,15,26,19.90
2009,06,27,15,27,19.90
2009,06,27,15,28,19.90
2009,06,27,15,29,19.90
2009,06,27,15,30,19.80
2009,06,27,15,31,19.60
2009,06,27,15,32,19.50
2009,06,27,15,33,19.40
2009,06,27,15,34,19.40
2009,06,27,15,35,19.40
2009,06,27,15,36,19.30
2009,06,27,15,37,19.10
2009,06,27,15,38,19.10
2009,06,27,15,39,19.10
2009,06,27,15,40,19.10
2009,06,27,15,41,19.00
2009,06,27,15,42,18.90
2009,06,27,15,43,18.90
2009,06,27,15,44,19.00
2009,06,27,15,45,19.10
2009,06,27,15,46,19.10
2009,06,27,15,47,19.20
2009,06,27,15,48,19.20
2009,06,27,15,49,19.30
2009,06,27,15,50,19.30
2009,06,27,15,51,19.30
2009,06,27,15,52,19.20
2009,06,27,15,53,19.10
2009,06,27,15,54,19.10
2009,06,27,15,55,19.20
2009,06,27,15,56,19.20
2009,06,27,15,57,19.30
2009,06,27,15,58,19.30
2009,06,27,15,59,19.30
2009,06,27,16,00,19.30
2009,06,27,16,01,19.30
2009,06,27,16,02,19.20
2009,06,27,16,03,19.10
2009,06,27,16,04,19.10
2009,06,27,16,05,19.10
2009,06,27,16,06,19.20
2009,06,27,16,07,19.30
2009,06,27,16,08,19.30
2009,06,27,16,09,19.30
2009,06,27,16,10,19.30
2009,06,27,16,11,19.30
2009,06,27,16,12,19.20
2009,06,27,16,13,19.20
2009,06,27,16,14,19.30
2009,06,27,16,15,19.30
2009,06,27,16,16,19.30
2009,06,27,16,17,19.30
2009,06,27,16,18,19.30
2009,06,27,16,19,19.40
2009,06,27,16,20,19.40
2009,06,27,16,21,19.50
2009,06,27,16,22,19.40
2009,06,27,16,23,19.30
2009,06,27,16,24,19.20
2009,06,27,16,25,19.20
2009,06,27,16,26,19.20
2009,06,27,16,27,19.20
2009,06,27,16,28,19.20
2009,06,27,16,29,19.20
2009,06,27,16,30,19.20
2009,06,27,16,31,19.10
2009,06,27,16,32,19.10
2009,06,27,16,33,19.10
2009,06,27,16,34,19.10
2009,06,27,16,35,19.10
2009,06,27,16,36,19.10
2009,06,27,16,37,19.10
2009,06,27,16,38,19.10
2009,06,27,16,39,19.10
2009,06,27,16,40,19.10
2009,06,27,16,41,19.10
2009,06,27,16,42,19.10
2009,06,27,16,43,19.10
2009,06,27,16,44,19.10
2009,06,27,16,45,19.10
2009,06,27,16,46,19.10
2009,06,27,16,47,19.10
2009,06,27,16,48,19.20
2009,06,27,16,49,19.20
2009,06,27,16,50,19.20
2009,06,27,16,51,19.20
2009,06,27,16,52,19.20
2009,06,27,16,53,19.20
2009,06,27,16,54,19.20
2009,06,27,16,55,19.20
2009,06,27,16,56,19.20
2009,06,27,16,57,19.10
2009,06,27,16,58,19.10
2009,06,27,16,59,19.10
2009,06,27,17,00,19.10
2009,06,27,17,01,19.10
2009,06,27,17,02,19.10
2009,06,27,17,03,19.00
2009,06,27,17,04,18.90
2009,06,27,17,05,18.90
2009,06,27,17,06,18.90
2009,06,27,17,07,18.90
2009,06,27,17,08,18.90
2009,06,27,17,09,18.90
2009,06,27,17,10,19.00
2009,06,27,17,11,19.10
2009,06,27,17,12,19.10
2009,06,27,17,13,19.10
2009,06,27,17,14,19.20
2009,06,27,17,15,19.20
2009,06,27,17,16,19.30
2009,06,27,17,17,19.30
2009,06,27,17,18,19.20
2009,06,27,17,19,19.10
2009,06,27,17,20,19.10
2009,06,27,17,21,19.00
2009,06,27,17,22,18.90
2009,06,27,17,23,18.90
2009,06,27,17,24,18.90
2009,06,27,17,25,18.90
2009,06,27,17,26,18.90
2009,06,27,17,27,19.00
2009,06,27,17,28,19.10
2009,06,27,17,29,19.10
2009,06,27,17,30,19.20
2009,06,27,17,31,19.30
2009,06,27,17,32,19.40
2009,06,27,17,33,19.50
2009,06,27,17,34,19.60